Date,TemperatureHighF,TemperatureAvgF,TemperatureLowF,DewpointHighF,DewpointAvgF,DewpointLowF,HumidityHigh,HumidityAvg,HumidityLow,PressureMaxIn,PressureMinIn,WindSpeedMaxMPH,WindSpeedAvgMPH,GustSpeedMaxMPH,PrecipitationSumIn
2013-1-1,34.1,28.7,14.0,26.2,17.6,5.4,77,63,51,29.90,29.68,19,3,22,0.00
2013-1-2,27.2,16.4,7.4,15.6,8.1,-1.0,82,69,60,30.09,29.88,19,2,19,0.00
2013-1-3,23.4,13.3,2.6,13.4,0.9,-6.8,69,58,35,30.12,29.96,17,2,17,0.00
2013-1-4,35.1,29.5,22.3,25.1,20.5,13.4,78,69,62,29.96,29.78,22,5,22,0.00
2013-1-5,39.4,32.0,22.0,25.5,21.5,16.1,80,65,47,30.22,29.82,18,2,18,0.01
2013-1-6,39.2,32.1,22.7,29.0,25.5,16.9,90,77,65,30.19,29.91,21,2,21,0.00
2013-1-7,36.1,31.4,21.5,29.5,22.1,13.6,82,69,45,30.36,29.94,14,1,14,0.02
2013-1-8,42.4,35.4,21.4,28.4,25.1,14.9,78,66,55,30.33,30.24,21,4,21,0.06
2013-1-9,43.2,35.7,25.1,35.9,28.0,21.4,88,74,54,30.36,29.97,24,3,24,0.00
2013-1-10,43.6,38.7,30.0,29.6,25.2,23.1,75,58,46,30.50,30.01,15,3,19,0.00
2013-1-11,36.7,32.1,26.5,31.8,26.7,21.7,95,81,68,30.50,30.19,6,0,6,0.04
2013-1-12,41.3,37.1,33.1,40.2,35.9,31.8,96,96,95,30.19,30.09,6,0,6,0.00
2013-1-13,49.0,44.1,38.2,46.6,42.8,37.2,97,95,90,30.11,29.95,18,2,18,0.00
2013-1-14,56.6,47.0,37.3,49.4,40.8,27.6,96,80,49,30.22,29.83,16,2,16,0.00
2013-1-15,39.1,34.8,30.3,28.3,25.7,24.1,83,70,57,30.29,30.19,8,0,8,0.00
2013-1-16,33.3,30.8,27.9,31.7,28.4,24.2,95,91,74,30.22,29.79,3,0,3,0.00
2013-1-17,39.1,32.6,26.2,31.8,25.5,12.5,93,76,56,30.07,29.79,17,1,17,0.02
2013-1-18,26.2,19.3,13.8,13.1,3.7,-1.5,68,51,35,30.41,30.02,14,1,14,0.00
2013-1-19,44.4,33.9,18.6,30.4,21.5,7.4,79,60,47,30.34,29.84,29,4,29,0.02
2013-1-20,49.4,37.7,25.7,32.0,24.8,10.2,79,60,39,29.89,29.50,35,5,35,0.04
2013-1-21,25.6,21.8,18.0,18.9,11.2,5.5,91,65,47,30.05,29.76,18,1,18,0.00
2013-1-22,21.4,16.7,9.4,18.4,6.6,-3.4,91,66,40,30.05,29.73,20,2,20,0.00
2013-1-23,13.0,8.1,3.7,0.9,-6.6,-9.7,73,51,36,30.11,30.03,19,2,19,0.00
2013-1-24,17.9,8.2,-0.9,-4.4,-7.8,-11.0,66,48,33,30.22,30.06,18,3,18,0.00
2013-1-25,21.1,13.5,5.7,11.2,-4.2,-9.4,83,46,28,30.29,30.03,14,1,14,0.00
2013-1-26,21.5,14.6,9.2,13.1,2.7,-6.1,92,61,35,30.23,29.98,18,2,18,0.00
2013-1-27,29.0,18.3,9.5,5.8,2.6,-0.1,73,51,32,30.45,30.22,15,2,15,0.00
2013-1-28,29.5,23.3,18.6,23.0,13.4,2.6,93,68,43,30.43,29.99,8,0,8,0.00
2013-1-29,32.3,28.2,23.6,31.0,26.2,21.4,95,92,87,30.16,30.00,5,0,5,0.06
2013-1-30,57.6,45.4,32.3,55.3,43.9,31.0,97,95,91,30.12,29.38,19,2,19,0.00
2013-1-31,59.5,44.4,27.6,57.3,36.1,15.4,94,74,44,29.54,28.89,29,7,29,0.00
2013-2-1,29.6,25.6,19.3,17.5,9.6,4.8,64,50,41,30.05,29.54,21,4,21,0.00
2013-2-2,28.4,21.7,14.1,15.6,7.1,2.8,75,53,41,30.21,30.02,17,2,17,0.00
2013-2-3,26.6,22.6,16.1,21.3,18.2,13.5,91,83,73,30.03,29.70,8,0,8,0.00
2013-2-4,27.5,22.1,17.5,18.6,10.7,5.1,88,62,43,29.91,29.70,27,3,27,0.00
2013-2-5,31.2,23.2,17.4,20.4,13.4,7.3,89,66,50,29.99,29.90,11,1,11,0.01
2013-2-6,34.4,27.2,20.5,24.3,17.3,4.6,92,68,42,30.27,29.89,18,2,18,0.00
2013-2-7,29.6,22.0,13.4,7.6,4.9,1.9,75,49,33,30.50,30.27,10,0,10,0.00
2013-2-8,23.6,20.6,16.1,19.8,15.2,4.8,92,81,45,30.46,29.65,19,3,21,0.00
2013-2-9,22.6,17.8,13.6,18.0,12.8,2.1,92,81,58,30.20,29.62,19,6,19,0.00
2013-2-10,39.6,23.6,13.3,9.2,3.6,-1.6,62,43,24,30.38,30.19,14,1,14,0.03
2013-2-11,41.7,30.5,21.5,40.6,24.2,4.2,96,79,34,30.31,29.58,20,0,20,0.02
2013-2-12,41.4,37.1,33.0,36.5,28.6,24.6,87,71,60,29.85,29.59,27,4,27,0.01
2013-2-13,42.5,34.0,29.5,26.1,23.8,22.3,75,66,48,29.83,29.67,14,1,14,0.00
2013-2-14,45.1,34.7,28.5,23.6,21.9,20.0,76,60,39,29.94,29.67,10,0,10,0.00
2013-2-15,51.7,38.5,28.2,32.8,28.9,22.9,92,70,45,29.94,29.85,20,2,20,0.00
2013-2-16,38.4,33.3,26.7,30.2,26.5,17.2,94,77,58,29.92,29.71,9,1,9,0.01
2013-2-17,26.5,20.0,14.7,18.5,7.7,0.3,87,59,46,29.70,29.40,32,6,32,0.01
2013-2-18,30.8,20.5,11.4,3.9,1.2,-1.7,60,44,26,30.12,29.68,17,4,20,0.00
2013-2-19,45.1,33.9,20.9,38.8,22.9,2.7,95,66,40,30.14,29.55,20,2,20,0.01
2013-2-20,39.1,29.6,24.1,36.4,19.2,10.9,91,66,46,29.75,29.52,27,5,27,0.00
2013-2-21,30.5,25.3,21.7,16.9,13.6,10.4,73,61,49,30.19,29.72,22,4,22,0.00
2013-2-22,41.4,30.5,22.4,23.8,20.2,16.4,80,66,43,30.36,30.20,17,1,17,0.00
2013-2-23,36.1,32.2,28.3,31.0,27.8,22.4,94,84,77,30.31,29.89,12,0,12,0.00
2013-2-24,33.3,32.5,31.2,32.3,31.2,29.9,96,95,94,29.89,29.69,8,1,8,0.16
2013-2-25,37.5,32.9,26.1,34.0,30.5,24.4,96,91,83,30.21,29.87,8,0,8,0.02
2013-2-26,40.8,35.5,32.1,32.9,30.4,28.0,96,82,67,30.30,30.13,10,0,10,0.00
2013-2-27,39.2,34.7,32.3,38.0,33.1,28.8,96,94,86,30.13,29.57,21,2,21,0.00
2013-2-28,43.7,36.5,32.2,37.8,33.7,30.9,96,90,79,29.60,29.51,7,0,7,0.00
2013-3-1,39.4,36.5,33.6,33.9,29.8,26.4,91,77,65,29.66,29.50,10,2,10,0.01
2013-3-2,38.6,34.8,31.2,29.6,27.2,25.2,80,74,68,29.65,29.60,10,1,10,0.00
2013-3-3,37.2,32.4,29.4,30.1,26.5,23.2,89,79,72,29.62,29.54,12,1,12,0.00
2013-3-4,37.5,31.6,25.8,26.9,23.4,19.3,79,71,58,29.73,29.57,19,4,19,0.00
2013-3-5,43.2,35.1,28.1,31.2,26.4,22.0,86,71,56,30.05,29.73,16,2,16,0.00
2013-3-6,36.8,33.6,30.4,34.1,31.7,29.1,100,93,85,30.08,30.02,19,3,19,0.09
2013-3-7,32.2,30.3,28.8,30.6,28.6,26.8,95,93,89,30.06,29.99,15,4,15,0.02
2013-3-8,38.6,32.7,28.8,32.9,28.3,22.7,96,85,56,30.15,29.94,13,4,13,0.01
2013-3-9,54.3,39.4,28.0,29.9,22.5,17.5,91,54,25,30.32,30.13,13,1,13,0.03
2013-3-10,48.6,36.2,26.0,33.1,29.0,23.9,93,77,52,30.38,30.26,9,1,9,0.00
2013-3-11,50.8,40.8,31.5,40.2,34.1,29.1,92,78,57,30.28,30.10,13,2,13,0.00
2013-3-12,52.8,47.0,41.5,49.7,45.1,39.7,96,93,85,30.10,29.68,16,2,16,0.00
2013-3-13,47.7,40.6,32.7,42.2,29.1,20.2,90,66,36,29.75,29.68,20,2,20,0.01
2013-3-14,34.9,28.6,20.5,25.7,15.2,6.6,72,57,47,29.82,29.69,20,4,20,0.00
2013-3-15,38.6,28.0,17.1,28.8,15.1,6.3,83,60,30,29.85,29.61,23,3,23,0.00
2013-3-16,39.2,31.2,25.0,26.8,17.1,10.0,82,58,33,29.86,29.66,9,1,9,0.00
2013-3-17,34.7,28.5,22.5,17.0,11.3,4.5,75,50,29,30.28,29.85,15,2,15,0.00
2013-3-18,38.2,26.9,15.0,25.3,6.9,0.5,90,45,21,30.43,30.19,11,1,11,0.00
2013-3-19,33.6,30.3,26.9,32.2,28.6,24.4,95,94,90,30.19,29.63,13,1,13,0.08
2013-3-20,37.4,28.7,21.3,24.5,20.7,18.0,92,73,50,29.78,29.68,21,2,21,0.05
2013-3-21,39.7,29.6,18.8,25.6,18.4,13.2,87,64,40,29.78,29.57,10,0,10,0.00
2013-3-22,38.4,30.8,23.8,21.5,18.2,14.1,71,60,43,29.72,29.59,17,3,17,0.00
2013-3-23,41.5,33.6,26.7,22.9,20.3,17.8,78,59,41,29.78,29.63,24,4,24,0.00
2013-3-24,44.4,36.6,30.6,26.0,23.2,19.9,70,58,45,29.80,29.70,11,2,11,0.01
2013-3-25,41.4,35.4,30.4,30.9,27.0,22.8,77,71,64,29.74,29.49,16,1,16,0.00
2013-3-26,47.9,38.9,34.0,30.1,25.3,19.7,79,60,35,29.76,29.52,14,2,14,0.01
2013-3-27,51.1,41.6,34.0,31.1,24.7,20.0,71,52,35,29.85,29.72,13,2,13,0.00
2013-3-28,49.1,41.5,35.5,33.4,31.8,29.3,89,69,49,29.99,29.85,10,1,10,0.00
2013-3-29,54.6,44.9,39.3,35.6,32.1,28.4,76,62,37,30.02,29.95,10,1,14,0.00
2013-3-30,54.9,44.2,36.5,34.4,25.0,16.5,77,51,24,30.07,29.97,12,2,12,0.00
2013-3-31,57.6,44.9,30.8,39.6,27.6,20.5,91,54,27,30.08,29.70,22,2,22,0.06
2013-4-1,59.7,43.1,32.2,43.4,34.3,12.2,95,73,38,29.76,29.47,22,2,22,0.16
2013-4-2,36.1,31.6,27.0,19.1,14.4,10.2,62,49,36,29.92,29.76,26,4,26,0.00
2013-4-3,43.4,34.0,27.1,19.2,14.7,10.5,65,46,28,30.14,29.91,24,4,24,0.00
2013-4-4,54.7,40.0,26.7,25.0,17.6,10.6,67,43,22,30.27,30.00,17,2,17,0.00
2013-4-5,58.8,44.8,36.1,29.1,25.3,15.5,74,50,21,30.00,29.62,15,3,15,0.00
2013-4-6,44.5,35.3,29.1,25.7,12.9,2.3,64,42,18,30.30,29.86,16,2,16,0.00
2013-4-7,57.4,41.4,26.7,39.6,24.2,-99.9,82,53,30,30.30,29.96,27,-7,27,0.00
2013-4-8,66.8,52.0,44.2,41.5,38.3,32.3,89,63,29,30.04,29.92,18,2,18,0.00
2013-4-9,66.2,55.1,44.6,52.2,43.9,39.9,94,68,46,30.02,29.83,22,2,22,0.02
2013-4-10,64.1,52.5,45.2,51.4,47.0,42.4,95,82,59,29.98,29.81,10,0,10,0.22
2013-4-11,53.3,46.4,38.8,47.9,36.7,24.2,99,71,42,30.11,29.79,11,1,11,0.04
2013-4-12,39.1,35.4,33.5,35.3,33.1,31.7,96,91,76,30.12,29.78,15,2,15,0.32
2013-4-13,51.7,41.9,33.4,39.0,35.1,32.1,96,78,52,29.91,29.75,14,1,14,0.01
2013-4-14,49.7,43.4,37.1,38.2,31.9,26.6,92,65,45,30.19,29.89,19,2,19,0.00
2013-4-15,60.7,46.3,34.7,38.0,32.5,27.8,79,60,37,30.35,30.19,13,1,13,0.00
2013-4-16,67.7,51.3,36.1,52.1,41.9,30.8,87,72,46,30.35,30.02,24,4,24,0.03
2013-4-17,65.5,55.6,45.6,52.3,37.3,28.6,89,54,28,30.30,30.02,15,2,15,0.00
2013-4-18,64.2,51.7,39.7,45.0,33.5,28.5,79,52,34,30.39,30.09,18,3,18,0.00
2013-4-19,75.0,62.3,51.4,62.3,56.7,45.0,95,82,60,30.10,29.58,26,5,26,0.00
2013-4-20,66.3,50.5,39.1,61.9,38.8,22.0,94,67,38,30.19,29.56,24,3,24,0.20
2013-4-21,54.4,41.3,31.8,28.7,22.0,15.8,77,48,25,30.64,30.19,19,1,19,0.00
2013-4-22,53.5,41.8,30.5,32.3,28.7,21.8,87,63,30,30.72,30.56,21,2,21,0.00
2013-4-23,39.5,37.6,35.5,38.2,34.8,30.1,95,90,77,30.56,30.10,13,2,13,0.00
2013-4-24,76.0,56.0,39.2,50.4,43.3,33.6,96,68,23,30.10,29.75,19,2,19,0.00
2013-4-25,61.9,52.8,44.6,50.7,35.3,21.4,91,55,25,30.24,29.77,16,2,16,0.04
2013-4-26,62.7,51.0,40.2,37.4,32.3,24.7,74,49,33,30.39,30.24,14,1,14,0.00
2013-4-27,66.3,51.6,36.6,38.8,35.4,32.8,87,58,31,30.39,30.24,12,1,12,0.00
2013-4-28,73.3,56.5,39.5,42.5,36.5,28.5,88,51,26,30.30,30.15,17,2,17,0.00
2013-4-29,70.4,57.5,46.1,47.4,37.3,23.0,78,49,29,30.22,30.13,16,2,16,0.00
2013-4-30,73.8,58.2,45.2,38.2,30.4,19.8,72,39,17,30.31,30.20,13,1,13,0.00
2013-5-1,74.8,57.2,39.3,42.5,34.5,29.6,78,46,23,30.43,30.31,12,1,12,0.00
2013-5-2,81.5,61.0,47.2,46.9,40.7,35.0,72,51,22,30.44,30.27,15,1,15,0.00
2013-5-3,64.1,51.7,41.1,46.0,41.0,36.0,88,68,49,30.49,30.34,15,1,15,0.00
2013-5-4,65.8,52.5,39.1,46.3,37.6,13.4,92,63,15,30.34,30.24,16,1,16,0.00
2013-5-5,67.4,50.4,36.2,42.9,37.6,34.0,94,66,34,30.30,30.19,12,1,12,0.00
2013-5-6,78.0,56.4,36.2,49.9,42.0,34.4,95,65,25,30.25,30.08,12,1,12,0.00
2013-5-7,82.0,65.0,46.3,57.8,50.6,42.6,94,64,34,30.13,30.03,17,1,18,0.00
2013-5-8,71.3,61.6,52.5,64.9,57.6,50.6,95,87,70,30.15,30.00,16,1,16,0.32
2013-5-9,69.2,60.1,56.6,61.4,58.0,55.4,96,93,70,30.00,29.84,8,0,8,0.00
2013-5-10,79.4,65.7,51.9,58.9,55.0,50.8,96,72,40,29.92,29.84,8,1,10,0.00
2013-5-11,66.5,62.3,57.9,61.8,58.6,54.1,95,88,75,29.86,29.64,22,1,22,0.04
2013-5-12,67.8,58.4,47.1,58.9,48.8,31.0,96,73,42,29.77,29.53,15,1,15,0.00
2013-5-13,55.4,47.4,40.8,34.0,30.9,27.2,70,53,38,30.00,29.77,18,2,18,0.00
2013-5-14,58.2,48.6,41.9,36.9,32.3,27.7,68,54,35,30.03,29.96,15,1,15,0.00
2013-5-15,66.0,52.6,39.6,51.4,40.7,30.3,90,67,32,30.02,29.65,20,2,20,0.08
2013-5-16,79.3,67.0,52.5,52.3,42.0,32.1,87,45,22,29.75,29.60,21,3,21,0.00
2013-5-17,70.0,58.0,48.8,45.8,41.8,35.4,80,57,30,30.18,29.76,11,1,11,0.00
2013-5-18,72.5,60.0,44.5,47.8,42.4,36.1,88,56,30,30.27,30.17,13,1,13,0.00
2013-5-19,71.3,58.3,48.5,55.3,50.6,45.3,95,77,49,30.30,30.16,16,1,16,0.06
2013-5-20,80.9,66.9,55.1,66.8,60.1,53.6,96,80,58,30.16,29.88,14,1,14,0.02
2013-5-21,88.1,65.8,50.0,71.9,59.5,48.0,96,82,52,30.04,29.78,13,1,13,0.00
2013-5-22,76.7,59.8,49.5,67.7,56.1,48.0,96,88,72,30.05,29.82,20,1,20,0.34
2013-5-23,75.7,63.0,54.4,69.2,60.8,53.0,97,93,79,29.88,29.74,19,1,19,0.02
2013-5-24,70.4,60.7,47.0,64.6,57.7,45.6,96,90,79,29.79,29.59,13,1,13,0.00
2013-5-25,49.4,45.2,39.1,47.9,43.7,37.2,96,95,91,29.79,29.70,16,1,16,0.00
2013-5-26,56.7,46.8,37.9,43.0,39.3,35.2,92,76,54,30.08,29.70,20,2,20,0.00
2013-5-27,71.0,56.8,40.8,49.3,40.9,33.6,90,60,29,30.14,30.05,20,1,20,0.00
2013-5-28,77.0,60.9,44.4,52.8,45.4,39.8,89,61,30,30.20,30.11,12,0,12,0.01
2013-5-29,72.9,62.8,56.9,66.0,59.7,52.3,95,90,78,30.13,29.94,13,0,13,0.01
2013-5-30,87.0,74.1,62.6,70.0,65.4,60.8,95,76,50,30.04,29.96,13,2,13,0.00
2013-5-31,92.3,80.3,66.8,71.3,66.0,62.0,89,64,40,30.04,29.88,15,1,15,0.00
2013-6-1,92.5,81.5,72.8,70.2,65.6,60.4,78,60,39,29.92,29.79,15,3,15,0.01
2013-6-2,89.6,77.8,67.4,71.1,67.1,60.7,91,72,41,29.82,29.65,28,3,28,0.01
2013-6-3,77.3,67.9,57.2,67.4,60.9,43.2,95,80,54,29.79,29.71,14,1,14,0.02
2013-6-4,71.3,60.2,50.1,51.4,45.3,40.0,81,59,41,30.06,29.78,16,1,16,0.00
2013-6-5,76.3,62.6,50.3,54.7,48.1,41.4,88,62,34,30.16,30.05,11,1,11,0.00
2013-6-6,74.1,63.5,53.0,54.1,50.6,47.2,91,65,42,30.14,30.05,12,1,12,0.02
2013-6-7,55.8,53.4,50.9,54.7,51.0,-99.9,96,94,91,30.06,29.80,10,-10,10,0.00
2013-6-8,76.5,58.6,50.8,65.0,47.3,-99.9,97,79,62,29.97,29.61,17,-58,17,0.02
2013-6-9,78.5,67.3,57.0,60.0,56.4,53.7,92,70,46,30.13,29.97,14,1,14,0.00
2013-6-10,69.8,63.7,57.1,62.7,58.1,54.2,95,83,68,30.16,29.95,9,0,9,0.02
2013-6-11,61.8,53.4,54.4,58.1,44.4,-99.9,100,87,86,29.96,29.54,9,-69,9,0.00
2013-6-12,69.3,61.4,55.8,58.2,54.8,52.0,96,80,60,29.79,29.52,19,1,19,0.02
2013-6-13,65.1,56.7,50.2,59.1,53.1,48.8,95,88,70,29.78,29.65,7,0,7,0.00
2013-6-14,76.6,50.0,49.8,61.5,23.5,-99.9,97,62,47,29.75,29.61,11,-201,11,0.01
2013-6-15,77.8,66.5,58.0,56.4,49.6,42.0,79,57,31,29.90,29.75,15,1,15,0.01
2013-6-16,76.2,67.4,59.1,61.7,54.3,46.5,75,63,51,29.90,29.66,18,1,18,0.00
2013-6-17,67.1,64.1,62.1,58.9,57.7,57.0,84,80,75,29.80,29.73,15,1,15,0.00
2013-6-18,75.1,62.7,57.1,64.6,59.2,55.2,95,89,70,29.90,29.84,2,0,11,0.01
2013-6-19,76.5,63.4,52.6,56.3,51.9,45.0,96,70,36,30.11,29.87,9,0,9,0.01
2013-6-20,79.8,66.5,51.0,57.9,51.5,46.7,89,62,35,30.23,30.11,12,1,12,0.00
2013-6-21,85.0,71.9,59.6,66.0,58.9,53.1,82,66,37,30.20,30.14,15,2,15,0.00
2013-6-22,83.5,73.4,62.4,66.5,61.5,57.5,85,68,48,30.17,30.05,15,2,15,0.00
2013-6-23,89.7,77.2,67.5,73.9,66.4,58.5,82,70,56,30.10,29.94,12,2,14,0.00
2013-6-24,91.5,78.7,68.1,74.6,69.6,64.7,93,75,52,29.97,29.83,17,2,17,0.00
2013-6-25,89.8,77.9,65.9,73.1,68.0,63.4,93,73,54,29.88,29.68,15,1,15,0.00
2013-6-26,82.1,74.8,68.1,71.6,68.1,65.5,93,80,65,29.81,29.68,12,0,12,0.00
2013-6-27,73.0,67.5,63.8,68.4,65.3,62.6,96,93,84,29.81,29.70,6,0,6,0.00
2013-6-28,80.8,67.4,58.4,73.3,65.0,57.3,97,92,77,29.71,29.43,12,0,12,0.00
2013-6-29,85.3,74.7,68.5,71.8,68.4,65.7,95,82,59,29.67,29.46,14,1,14,0.00
2013-6-30,86.6,76.0,67.3,73.4,69.1,65.2,94,80,58,29.88,29.67,15,1,15,0.00
2013-7-1,81.8,73.6,70.4,73.6,70.9,68.3,96,92,76,30.02,29.88,10,0,10,0.00
2013-7-2,85.8,74.1,63.3,75.7,70.1,61.2,96,88,69,30.16,30.02,12,1,12,0.00
2013-7-3,86.5,74.6,61.8,75.3,69.2,60.2,96,84,66,30.16,30.09,17,2,17,0.01
2013-7-4,90.5,81.3,73.7,75.4,73.0,70.6,91,77,60,30.15,30.04,19,2,19,0.00
2013-7-5,92.5,82.8,74.6,76.5,73.4,71.1,89,74,57,30.11,29.98,16,2,16,0.00
2013-7-6,89.8,80.7,70.8,74.5,71.4,65.7,88,75,54,30.03,29.92,14,1,14,0.00
2013-7-7,92.2,78.1,68.3,76.2,70.3,64.1,90,78,58,29.98,29.85,10,0,10,0.00
2013-7-8,88.3,78.1,69.5,74.7,71.1,66.5,94,80,58,30.01,29.86,12,0,12,0.00
2013-7-9,74.8,69.6,65.2,69.6,66.3,63.7,95,89,82,30.06,30.00,7,0,7,0.00
2013-7-10,86.4,73.0,65.9,76.3,69.8,64.1,96,90,71,30.03,29.74,15,1,15,0.00
2013-7-11,83.7,75.9,69.7,74.2,70.9,64.3,94,85,68,29.90,29.73,13,1,13,0.01
2013-7-12,81.0,71.8,66.0,66.0,61.1,57.2,83,70,49,30.15,29.90,18,0,18,0.00
2013-7-13,75.7,69.9,64.7,70.8,65.2,58.3,95,85,76,30.27,30.15,7,0,7,0.00
2013-7-14,88.6,78.6,68.8,76.4,71.7,67.6,96,81,55,30.26,30.16,10,0,10,0.00
2013-7-15,93.0,82.0,72.9,77.0,71.7,68.2,90,72,50,30.17,30.05,6,0,6,0.00
2013-7-16,93.0,81.9,73.1,73.6,69.4,65.5,87,67,46,30.12,30.07,6,0,6,0.00
2013-7-17,95.0,81.9,71.9,76.4,69.8,-99.9,90,70,49,30.14,29.94,13,-10,13,0.00
2013-7-18,95.6,84.1,74.2,77.7,73.4,69.2,88,72,47,29.96,29.87,14,1,14,0.00
2013-7-19,93.5,84.3,72.9,77.8,74.0,69.7,91,72,53,29.90,29.66,19,2,19,0.00
2013-7-20,88.6,80.9,70.9,78.5,71.9,63.6,90,75,60,29.75,29.61,14,1,14,0.03
2013-7-21,84.7,75.0,66.4,71.6,65.5,61.4,92,73,54,29.93,29.75,8,0,8,0.00
2013-7-22,84.1,71.8,63.9,72.2,66.4,62.1,95,84,63,29.98,29.84,6,0,8,0.00
2013-7-23,80.4,70.7,67.2,75.8,68.9,65.2,97,94,81,29.84,29.49,10,0,10,0.29
2013-7-24,81.6,74.0,63.4,71.0,66.3,55.4,96,78,57,29.92,29.54,14,0,14,0.00
2013-7-25,63.2,59.7,56.9,58.0,54.4,48.6,95,83,72,30.07,29.92,6,0,6,0.00
2013-7-26,73.3,64.4,59.5,67.7,61.3,57.8,97,90,76,30.03,29.92,11,0,11,0.01
2013-7-27,84.3,71.5,59.7,67.4,62.5,57.0,94,75,50,30.01,29.93,9,0,9,0.00
2013-7-28,85.0,71.6,61.4,71.9,65.4,59.5,94,82,56,29.97,29.90,8,0,8,0.00
2013-7-29,88.5,74.8,66.5,73.7,66.9,60.2,96,78,50,29.99,29.89,11,0,11,0.00
2013-7-30,81.1,71.0,60.3,63.9,58.5,54.1,81,66,46,30.05,29.99,12,0,12,0.00
2013-7-31,84.5,71.1,61.8,66.8,60.2,56.4,87,70,44,30.09,29.98,7,0,7,0.00
2013-8-1,80.2,68.7,60.2,68.0,62.8,57.9,95,82,63,29.99,29.82,12,0,12,0.00
2013-8-2,81.1,70.4,63.7,67.6,62.9,58.2,96,79,47,29.83,29.75,13,1,13,0.00
2013-8-3,78.8,69.4,62.5,65.0,61.0,54.5,87,75,57,29.81,29.73,13,1,13,0.00
2013-8-4,78.2,67.1,56.7,62.7,56.6,52.7,90,70,48,29.86,29.73,11,0,11,0.00
2013-8-5,75.2,63.3,54.4,53.8,49.6,43.5,92,64,35,30.01,29.85,10,1,15,0.00
2013-8-6,80.8,65.8,52.8,61.4,54.3,47.3,90,69,42,30.10,30.01,10,0,10,0.00
2013-8-7,82.3,68.6,56.3,62.2,57.5,51.8,93,71,42,30.14,30.05,13,1,13,0.00
2013-8-8,81.3,72.0,64.9,72.4,67.0,59.9,94,85,71,30.06,29.95,11,1,11,0.00
2013-8-9,75.0,72.0,70.5,73.1,69.8,67.6,96,93,88,29.97,29.70,18,1,18,0.00
2013-8-10,80.2,71.6,63.8,69.0,61.2,52.9,95,71,47,29.98,29.75,14,1,14,0.00
2013-8-11,79.7,67.2,56.7,61.4,55.5,51.3,86,68,46,30.04,29.96,11,0,11,0.00
2013-8-12,82.9,69.8,59.7,64.6,59.3,56.0,92,71,45,29.99,29.87,9,0,9,0.00
2013-8-13,75.6,68.9,64.8,68.3,64.2,60.3,94,85,75,29.88,29.64,9,0,9,0.00
2013-8-14,71.3,64.3,57.4,64.1,55.2,50.4,93,73,57,29.93,29.62,19,2,19,0.00
2013-8-15,75.8,63.9,54.8,58.5,53.3,50.0,87,70,47,30.07,29.93,11,1,11,0.00
2013-8-16,79.2,65.5,54.6,60.9,55.4,51.6,92,72,45,30.16,30.07,12,0,12,0.00
2013-8-17,82.2,68.6,57.7,66.4,58.9,52.9,89,73,47,30.24,30.16,8,0,8,0.00
2013-8-18,78.9,68.9,58.2,66.3,61.4,55.8,93,78,54,30.23,30.04,8,0,8,0.00
2013-8-19,79.0,70.7,63.5,65.5,61.5,58.3,85,73,55,30.04,29.92,13,1,13,0.00
2013-8-20,86.1,73.9,65.3,69.8,62.4,57.2,83,69,45,30.06,29.94,8,0,8,0.00
2013-8-21,86.7,75.2,67.4,69.7,64.2,60.2,88,70,48,30.10,29.98,9,0,9,0.00
2013-8-22,84.9,75.1,64.1,71.9,66.9,60.8,91,76,57,29.99,29.77,14,1,14,0.00
2013-8-23,78.8,70.7,60.7,68.5,59.7,51.7,89,70,47,30.08,29.77,12,0,12,0.00
2013-8-24,81.3,65.2,55.7,58.4,51.4,45.8,85,64,32,30.29,30.08,8,0,8,0.00
2013-8-25,81.2,69.5,60.0,60.4,55.2,49.2,79,62,36,30.32,30.14,10,1,10,0.00
2013-8-26,77.1,70.6,63.5,67.9,62.6,56.2,91,76,67,30.14,29.82,16,1,16,0.03
2013-8-27,88.5,74.2,67.4,71.9,67.8,64.7,96,82,51,29.85,29.78,9,0,9,0.04
2013-8-28,88.3,73.4,63.8,70.8,65.8,61.7,93,79,51,29.93,29.79,8,0,8,0.00
2013-8-29,68.0,64.1,60.7,64.4,61.7,58.1,95,92,88,30.03,29.89,10,0,10,0.01
2013-8-30,83.5,69.9,58.8,70.3,63.9,56.8,95,83,61,29.99,29.78,12,1,12,0.00
2013-8-31,82.5,74.7,70.5,74.0,70.4,66.6,94,87,74,29.79,29.73,14,1,14,0.01
2013-9-1,80.4,73.8,67.8,74.5,70.5,65.7,94,89,80,29.83,29.74,14,1,14,0.06
2013-9-2,78.0,73.3,70.2,74.9,71.0,68.7,96,93,83,29.81,29.66,9,0,9,0.22
2013-9-3,80.5,70.9,62.9,70.5,65.8,57.1,96,84,68,29.77,29.65,13,0,13,0.00
2013-9-4,79.3,67.3,59.9,61.7,57.4,52.8,89,73,42,29.88,29.75,15,1,15,0.00
2013-9-5,70.7,63.1,52.8,60.8,53.1,42.8,92,71,42,30.11,29.82,11,0,11,0.02
2013-9-6,69.2,57.0,48.1,50.0,43.2,37.8,87,62,37,30.21,30.05,9,0,9,0.00
2013-9-7,76.8,62.8,48.5,59.3,51.6,44.8,89,69,39,30.05,29.81,12,1,12,0.00
2013-9-8,71.8,62.8,51.5,62.3,53.0,41.5,92,72,43,30.07,29.72,15,1,15,0.00
2013-9-9,69.5,57.1,45.4,51.1,45.1,38.8,85,66,43,30.20,30.05,13,1,13,0.00
2013-9-10,75.7,66.2,54.7,69.8,62.6,50.3,94,88,80,30.11,29.98,13,2,16,0.04
2013-9-11,92.9,80.0,67.2,77.5,72.1,65.5,96,79,51,30.02,29.88,16,1,16,0.00
2013-9-12,86.2,76.1,66.2,75.3,69.7,64.7,95,81,64,29.90,29.61,22,2,22,0.46
2013-9-13,75.4,66.5,57.1,67.8,62.5,53.3,96,87,70,29.73,29.53,12,0,12,0.00
2013-9-14,65.9,57.7,52.2,55.3,52.0,49.7,93,82,65,30.02,29.73,11,0,11,0.02
2013-9-15,69.8,58.3,48.9,54.6,49.3,44.3,92,74,44,30.13,30.02,10,0,10,0.00
2013-9-16,65.9,57.1,44.5,55.8,50.2,38.0,88,78,66,30.22,29.97,10,0,10,0.00
2013-9-17,64.7,50.4,40.1,47.9,40.4,34.9,90,70,43,30.40,30.22,10,0,10,0.00
2013-9-18,74.8,59.1,46.3,52.4,46.0,42.0,92,64,36,30.30,30.09,12,0,12,0.00
2013-9-19,81.0,65.5,49.4,57.5,51.7,45.9,89,63,37,30.09,29.99,11,0,11,0.00
2013-9-20,83.5,66.3,52.9,59.0,54.7,48.7,91,69,35,30.05,29.94,8,0,8,0.00
2013-9-21,73.8,64.4,53.6,64.3,58.9,51.6,95,83,68,29.98,29.67,18,2,18,0.00
2013-9-22,67.6,61.3,50.3,65.5,54.9,45.3,94,80,57,29.80,29.56,17,1,17,0.52
2013-9-23,61.9,51.3,44.5,47.1,42.7,38.8,88,73,55,29.99,29.81,14,0,14,0.00
2013-9-24,65.7,52.4,41.9,46.2,42.2,38.5,89,70,43,29.98,29.79,11,0,11,0.00
2013-9-25,69.1,57.8,49.8,54.6,48.6,43.4,87,72,57,29.95,29.83,10,0,10,0.00
2013-9-26,69.0,57.4,52.0,53.1,49.5,46.4,91,76,50,30.09,29.95,8,0,8,0.00
2013-9-27,65.7,57.5,52.3,55.9,51.9,49.5,92,82,65,30.23,30.09,5,0,5,0.00
2013-9-28,74.7,59.5,50.3,58.6,52.7,48.3,93,80,51,30.31,30.23,8,0,8,0.00
2013-9-29,72.5,54.8,45.4,55.2,47.7,41.7,96,80,36,30.23,30.08,7,0,7,0.00
2013-9-30,73.8,54.6,41.6,54.6,48.0,40.0,96,81,48,30.09,29.93,9,0,9,0.00
2013-10-1,76.9,63.5,48.1,59.3,53.7,45.9,94,72,47,29.93,29.82,10,0,10,0.00
2013-10-2,77.7,66.4,53.5,63.0,57.6,50.9,93,74,57,29.92,29.80,11,1,15,0.00
2013-10-3,77.1,64.3,57.2,56.1,52.3,47.6,82,67,37,30.05,29.92,9,0,9,0.00
2013-10-4,63.7,59.3,55.3,58.2,52.8,46.1,94,80,60,30.05,29.99,4,0,6,0.06
2013-10-5,69.8,61.4,57.2,60.6,57.5,55.4,94,87,71,30.08,30.02,6,0,6,0.04
2013-10-6,59.8,54.5,51.3,58.3,53.2,50.2,97,95,94,30.19,30.07,9,0,9,0.32
2013-10-7,75.8,61.1,53.7,70.1,58.9,52.6,97,93,76,30.10,29.75,30,2,30,0.39
2013-10-8,64.8,54.7,45.5,52.6,45.0,38.4,88,71,43,30.34,29.85,10,0,10,0.00
2013-10-9,63.4,49.7,41.5,48.6,42.7,37.2,94,78,55,30.45,30.33,12,0,12,0.00
2013-10-10,59.1,49.8,42.4,51.4,46.3,40.9,96,88,70,30.34,30.16,4,0,4,0.00
2013-10-11,70.7,56.1,46.6,54.8,46.5,35.4,94,74,29,30.16,30.07,7,0,7,0.00
2013-10-12,55.5,52.7,50.1,53.5,50.2,46.4,95,91,82,30.36,30.12,11,0,11,0.01
2013-10-13,56.8,50.3,43.4,50.3,47.2,41.7,96,89,78,30.42,30.34,8,0,8,0.00
2013-10-14,70.8,52.0,39.0,47.8,43.6,37.7,96,76,41,30.37,30.21,10,0,10,0.01
2013-10-15,68.1,57.6,50.4,55.9,51.4,47.0,93,80,63,30.23,30.13,9,0,9,0.00
2013-10-16,59.4,53.6,48.9,51.4,49.9,47.0,96,88,68,30.15,29.88,5,0,5,0.00
2013-10-17,73.0,60.8,48.5,58.9,54.3,46.6,95,81,50,29.88,29.67,17,2,17,0.01
2013-10-18,64.1,58.3,46.8,59.8,49.6,39.4,94,74,51,29.87,29.55,19,2,19,0.02
2013-10-19,66.5,54.6,42.1,47.2,42.6,38.8,88,66,43,29.93,29.70,13,1,13,0.00
2013-10-20,59.7,51.4,41.1,50.0,40.6,33.4,91,69,39,29.99,29.65,20,1,20,0.00
2013-10-21,66.3,52.8,41.2,43.9,40.2,36.3,85,64,39,30.08,29.95,18,1,18,0.00
2013-10-22,63.6,52.5,43.0,51.5,44.7,34.9,93,76,60,29.95,29.67,16,1,16,0.00
2013-10-23,49.7,44.3,35.9,35.8,33.8,31.5,90,68,50,29.77,29.56,11,0,11,0.00
2013-10-24,51.9,44.3,37.6,35.4,30.3,25.2,80,59,38,29.86,29.63,19,2,19,0.00
2013-10-25,48.7,40.9,32.6,34.5,30.6,27.0,86,68,46,30.13,29.86,14,1,14,0.00
2013-10-26,54.2,44.1,36.2,34.2,31.1,26.0,81,62,37,30.13,29.84,24,3,24,0.00
2013-10-27,52.2,46.1,37.9,36.8,33.4,29.7,77,62,44,30.03,29.77,23,2,23,0.00
2013-10-28,55.9,44.5,34.1,36.4,32.3,24.0,79,63,43,30.33,30.03,23,2,23,0.00
2013-10-29,47.7,36.2,30.1,25.0,22.3,17.0,75,59,31,30.43,30.32,8,0,8,0.00
2013-10-30,52.2,41.8,31.9,40.0,31.8,21.1,93,68,48,30.34,30.17,13,1,13,0.00
2013-10-31,58.9,48.2,35.5,57.4,46.4,33.9,96,94,84,30.21,29.75,14,1,14,0.30
2013-11-1,66.1,61.4,54.0,61.7,56.8,50.5,94,85,71,29.75,29.40,28,4,28,0.20
2013-11-2,65.6,53.0,41.5,50.5,43.7,39.4,94,73,44,29.70,29.56,13,1,13,0.00
2013-11-3,48.5,39.9,30.5,43.9,27.0,15.2,88,62,31,30.40,29.69,8,1,8,0.00
2013-11-4,42.2,32.0,26.2,23.9,18.2,14.0,85,58,33,30.68,30.40,9,0,9,0.00
2013-11-5,53.2,37.4,25.8,34.0,28.7,22.7,89,72,45,30.69,30.48,12,0,12,0.00
2013-11-6,60.4,49.8,37.9,47.3,41.8,33.5,89,75,54,30.48,30.00,18,2,18,0.00
2013-11-7,62.1,52.1,39.1,55.9,47.3,29.1,89,84,68,30.00,29.65,23,3,23,0.04
2013-11-8,45.2,36.7,29.4,34.0,26.8,21.9,84,68,55,30.07,29.78,19,2,19,0.00
2013-11-9,43.6,36.1,28.5,30.6,25.2,22.5,79,65,46,30.19,29.99,14,1,14,0.00
2013-11-10,52.0,44.0,37.4,39.9,35.3,29.9,90,72,58,29.99,29.71,22,2,22,0.02
2013-11-11,50.6,43.0,37.1,32.8,28.7,25.3,75,58,40,30.07,29.84,19,2,19,0.00
2013-11-12,47.2,33.5,25.6,37.4,24.0,15.7,90,68,54,30.15,29.85,20,2,20,0.02
2013-11-13,34.7,27.6,21.4,18.4,15.2,10.6,78,60,40,30.27,30.12,18,1,18,0.00
2013-11-14,49.8,40.0,29.8,25.7,21.0,16.9,62,47,34,30.12,30.01,21,4,21,0.00
2013-11-15,61.2,48.7,40.8,27.7,18.5,12.6,49,31,15,30.15,30.06,20,3,20,0.00
2013-11-16,61.2,47.2,38.9,38.3,30.0,24.7,83,53,31,30.27,30.14,6,0,6,0.00
2013-11-17,45.5,41.7,36.2,44.1,38.5,32.3,95,88,73,30.28,29.83,2,0,2,0.02
2013-11-18,63.3,54.7,45.4,59.3,44.3,31.3,96,70,46,29.83,29.50,20,3,20,0.27
2013-11-19,46.0,37.2,29.2,31.8,22.6,16.2,65,56,46,30.26,29.63,21,3,21,0.00
2013-11-20,40.2,30.8,25.0,19.2,15.7,10.4,77,54,30,30.61,30.26,12,1,12,0.00
2013-11-21,46.7,35.3,23.6,32.4,23.3,15.0,80,63,37,30.61,30.34,14,1,14,0.00
2013-11-22,46.7,42.7,40.3,44.8,40.1,32.3,96,90,73,30.34,29.78,16,1,16,0.07
2013-11-23,48.2,37.5,26.7,44.9,26.6,16.9,93,66,43,29.91,29.75,24,3,24,0.00
2013-11-24,26.7,21.2,17.8,20.3,5.9,-3.3,87,53,29,30.18,29.78,24,5,24,0.00
2013-11-25,32.7,23.4,14.3,16.9,6.1,-4.3,61,48,27,30.35,30.17,18,2,18,0.00
2013-11-26,37.4,32.3,27.1,31.0,23.3,14.1,94,70,50,30.30,30.02,14,1,14,0.12
2013-11-27,60.4,44.2,32.5,59.3,42.3,30.1,96,93,82,30.02,29.21,26,2,26,1.30
2013-11-28,35.0,28.0,22.2,30.6,16.5,9.0,84,62,43,30.40,29.43,18,3,24,0.00
2013-11-29,31.5,24.5,17.5,16.6,12.1,5.5,85,60,40,30.72,30.41,11,0,11,0.00
2013-11-30,31.1,22.8,13.3,20.8,12.7,5.9,78,65,51,30.78,30.41,10,0,10,0.00
2013-12-1,36.2,32.0,27.4,34.9,29.1,20.3,95,89,74,30.41,30.00,3,0,3,0.06
2013-12-2,38.7,36.6,35.2,37.7,35.4,33.9,96,95,95,30.00,29.89,3,0,3,0.00
2013-12-3,47.6,37.1,29.9,39.8,33.0,28.6,96,86,62,29.93,29.83,8,0,8,0.00
2013-12-4,42.0,34.5,29.3,31.4,28.1,26.4,92,78,58,30.17,29.93,11,0,11,0.00
2013-12-5,54.6,37.5,30.8,53.4,35.1,27.4,96,91,83,30.17,29.88,13,0,13,0.01
2013-12-6,55.4,46.2,32.9,53.5,42.6,31.1,96,87,72,30.12,29.83,18,1,18,0.14
2013-12-7,36.2,31.3,24.2,31.4,26.9,17.9,94,84,69,30.43,30.04,16,0,16,0.11
2013-12-8,28.4,25.7,18.6,20.9,17.7,15.1,94,72,60,30.57,30.42,5,0,5,0.00
2013-12-9,35.5,29.1,23.2,34.2,26.8,18.4,100,91,74,30.47,29.87,12,0,12,0.00
2013-12-10,34.6,30.5,22.7,32.2,25.6,15.1,93,82,70,29.97,29.76,15,1,15,0.00
2013-12-11,28.5,23.9,18.5,20.7,17.2,13.9,83,75,62,30.16,29.97,21,3,21,0.00
2013-12-12,23.7,18.0,10.6,18.1,7.8,1.9,85,65,42,30.25,30.02,14,1,14,0.00
2013-12-13,27.4,19.2,12.2,18.4,11.8,6.8,87,72,63,30.37,29.96,20,2,20,0.00
2013-12-14,14.6,11.2,8.4,12.0,3.7,-3.4,89,72,49,30.58,30.15,5,1,6,0.00
2013-12-15,27.1,21.9,14.5,24.0,19.0,11.9,100,88,80,30.15,29.45,12,2,12,0.00
2013-12-16,25.8,21.3,14.9,20.7,11.6,5.1,89,66,48,30.17,29.71,19,2,19,0.00
2013-12-17,17.9,9.0,-0.5,15.4,5.2,-4.2,90,84,65,30.25,29.96,9,1,9,0.00
2013-12-18,31.2,24.9,17.6,22.2,19.7,15.1,91,81,67,30.05,29.88,16,1,16,0.00
2013-12-19,39.6,32.6,21.5,27.6,23.4,17.7,86,69,55,30.08,29.93,21,2,21,0.05
2013-12-20,51.7,40.0,30.7,34.9,30.9,25.8,84,71,50,30.08,29.87,13,1,13,0.43
2013-12-21,56.8,46.9,39.5,46.1,40.0,32.1,91,77,65,29.92,29.82,8,1,10,0.02
2013-12-22,51.5,40.1,32.6,49.8,38.5,31.3,95,94,89,29.99,29.76,7,0,9,0.02
2013-12-23,38.6,33.1,31.5,36.0,31.8,30.2,96,95,88,30.07,29.90,8,0,8,0.00
2013-12-24,36.2,32.4,23.1,32.9,29.9,12.6,96,91,60,30.18,29.97,12,0,12,0.00
2013-12-25,33.6,28.0,13.7,32.6,22.7,2.5,96,82,48,30.46,29.99,9,0,10,0.01
2013-12-26,33.6,33.6,33.6,32.6,32.6,32.6,96,96,96,29.99,29.99,0,0,2,0.00
2013-12-27,33.6,31.2,25.9,32.6,25.5,19.2,96,80,61,30.26,29.99,13,1,13,0.00
2013-12-28,45.0,35.4,28.5,30.5,26.1,21.8,81,69,52,30.18,29.96,23,4,23,0.02
2013-12-29,43.3,36.6,33.1,36.8,26.1,-99.9,94,75,61,29.99,29.43,16,-37,16,0.74
2013-12-30,39.6,30.7,16.1,34.4,22.6,9.0,93,73,45,30.14,29.51,18,2,18,0.05
2013-12-31,23.8,16.6,9.2,15.6,8.8,4.6,86,71,51,30.17,29.99,15,0,15,0.00
2014-1-1,24.9,18.7,12.4,13.2,8.7,5.3,79,65,49,30.36,30.17,15,1,15,0.00
2014-1-2,18.6,10.0,0.3,14.9,3.6,-99.9,88,84,80,30.34,29.85,14,-29,14,0.00